sat.trackr.live / text

‹ back to catalog

WGS F5 (USA 243)

NORAD 39168 · 2013-024A

PAYLOAD ACTIVE UNKNOWN

§ Identity

Operator
Country
US
Launch date
2013-05-25
Launch site
AFETR
Launch vehicle
Mass (kg)
RCS (m²)
17.94

Purposes: comms

External: N2YO · Heavens-Above · Gunter

§ Orbital elements

Epoch: 2026-09-19T01:19:35.268384Z

Period
1,436.09 min
Inclination
0.0169°
Eccentricity
0.0000520
Mean motion
1.00272431 rev/d
Perigee alt
35,784.2 km
Apogee alt
35,788.6 km
Semi-major
42,164.6 km
B*
0.0000e+0
RAAN
178.6752°
Arg perigee
356.1653°
Mean anomaly
150.5366°
Rev number
4,811

§ Raw data

WGS F5 (USA 243)1 39168U 13024A   26262.05526931 -.00000289  00000+0  00000+0 0  99942 39168   0.0169 178.6752 0000520 356.1653 150.5366  1.00272431 48117

JSON: /api/v1/satellites/39168 · /tle

For live sub-satellite position, see the globe view (requires WebGL).

§ Visibility from observer

Set your observer location to see the next 7 days of passes ≥ 10°. The values pass through the URL so the page stays shareable.

No JS? Fill the form by hand. The geolocation button needs JavaScript.